Location: Unspecified
(0.0000°N, 0.0000°E)
Time: 19:52:54
(UTC-06:00)

Cosmos 2058 - Visible Passes

Search period start: 22 January 2019 00:00
Search period end: 01 February 2019 00:00
Orbit: 562 x 585 km, 82.5° (Epoch: 22 January)

Date Brightness Start Highest point End Pass type
(mag) Time Alt. Az. Time Alt. Az. Time Alt. Az.
22 Jan 5.7 13:37:00 10° SW 13:39:55 18° W 13:42:50 10° NW visible
23 Jan 6.0 13:41:05 10° WSW 13:42:58 13° W 13:44:51 10° WNW visible
30 Jan 6.1 22:50:49 10° ENE 22:52:26 12° E 22:54:02 10° ESE visible
31 Jan 5.8 22:52:42 10° NE 22:55:27 17° E 22:58:14 10° SE visible
